Tracking 32136 objects as of 11-Nov-2025
HD Live streaming from Space Station
objects crossing your sky now

ARKTIKA-M 2

Track ARKTIKA-M 2 now!


NORAD ID: 58584
Int'l Code: 2023-198A
Perigee: 1,959.5 km
Apogee: 38,413.0 km
Inclination: 63.2 °
Period: 717.9 minutes
Semi major axis: 26557 km
RCS: Unknown
Launch date: December 16, 2023
Source: Commonwealth of Independent States (former USSR) (CIS)
Launch site: TYURATAM MISSILE AND SPACE COMPLEX (TTMTR)
Your satellite tracking list
Your tracking list is empty




NASA's NSSDC Master Catalog

Two Line Element Set (TLE):
1 58584U 23198A   25300.47014159  .00000154  00000-0  00000-0 0  9994
2 58584  63.2270 179.9212 6863194 268.2851  18.8164  2.00598966 13650
Source of the keplerian elements: AFSPC